Starlink 31782

operational
NORAD ID: 59606 Int'l Des: 2024-080 Owner: SPXS Country: US Constellation: starlink
LEOCIRCULAR

About Starlink 31782

Description loading...

Live Position

Loading 3D Globe...

Upcoming Passes

Altitude History

Altitude vs Time

uPlot chart will show altitude changes over time

Two-Line Element Set

1 59606U 24080F 25349.83542239 .00000522 00000-0 28497-4 0 9992
2 59606 43.0004 155.3262 0001371 266.1892 93.8803 15.27579816 91663
Epoch: Dec 15, 2025 • Age: 29 hours

Current Status

Altitude 488.5 km
Velocity 7.62 km/s
Sub-Earth Point -24.62°S, 106.88°W
Launch Date Apr 28, 2024
Age 1.6 years
Type internet

Technical Details

Classification Payload
Mass 730.00 kg
Dry Mass 700.00 kg
Total Mass 730.00 kg
Length 0.30 m
Diameter 4.10 m
Span 29.00 m
Shape Box + pan
Manufacturer SPXS
Bus Type Starlink V2M
Phase Status In Orbit
Owner/State SPXS/US

Large Constellations

Loading constellations...